ECHO 1 DEB (METAL OBJ), 53

Orbit data source: Space-Track

ECHO 1 DEB (METAL OBJ), 53 is space debris in LEO originally from a launch on Fri, 12 Aug 1960 UTC launched from the Air Force Eastern Test Range (AFETR). Debris objects in space refer to the collection of defunct objects orbiting the Earth. Examples of debris include non-operational satellites, rocket bodies, and fragments generated from explosions, collisions, or faulty payload assembly.

Loading next visibility...
Identifier
53, 1960-009E
Orbit
LEO
Country
Flag of USUS
Related business
Manufacturer
Kaiser-Fleetwings
Mission
Spacecraft
Bus & Motor
ECHO CANISTER, Unknown motor
Mass
5 kg wet, 5 kg dry
Launch date (UTC)
1960-08-12 (66 years ago)
Launch vehicle
Unknown
Launch site
Air Force Eastern Test Range (AFETR)
Object type
Payload
Rocket body
Debris
Shape & HBR
Unknown shape, 0.9 m
Radar Cross Section
Medium (>0.1 m² and <1 m²)

Expand to show TLE details & history
Last TLE update: 7 hours ago

TLE from 7 hours ago
0 ECHO 1 DEB (METAL OBJ)
1 00053U 60009E   26136.22088815 -.00000019  00000-0  64835-3 0  9995
2 00053  47.2772  80.9381 0101061 340.9901  18.7130 12.17412424931532
Epoch: 2026-05-16T05:18Z
TLE epoch observation values (Epoch: 2026-05-16T05:18:04.736Z)
Latitude
0.00002°
Longitude
127.47742°
Altitude
1,527.738 km
Speed
7.137 km/s
True Right ascension
05h 23m 45s
True Declination
0° 00' 00"
Sunlit
Object was in daylight at epoch
Visualization orbit readout
Latitude
Unknown
Longitude
Unknown
Altitude
Unknown
Speed
Unknown
Apparent Right ascension
Unknown
Apparent Declination
Unknown
Sunlit
N/A
Visualization observer readout
Local Sidereal Time
20:30:18
Azimuth
Unknown
Elevation
Unknown
Doppler factor
Unknown
Orbital elements
Apogee altitude
1,685.565 km
Perigee altitude
1,524.21 km
Semi-major axis
7,983.025 km
Eccentricity
0.01011
Inclination
47.2772°
RAAN
80.9381°
Arg. of periapsis
340.9901°
True anomaly
19.08904°
Mean anomaly
18.713°
Eccentric anomaly
18.90057°
Mean motion
3.04293 °/min
Orbital period
118.31 mins
BSTAR
0.00064835
Loading maneuver chart data...
Computing Atmospheric mass density...
Loading historical data...
Loading historical data...
Loading historical data...
Loading historical data...
Loading historical data...
Loading historical data...
Loading historical data...
Other satellites on launch #9 in the year 1960 (1960-08-12 UTC)

Documentation

Showing up to 5 results
|